User: anonymous   Login
Location: Mentone
(34.5413°N, 85.5351°W)
Time: 21:25:27
(UTC-05:00)
Language:

Cosmos 1703 - Orbit

View from above orbital plane
View from above orbital plane
View from above satellite
View from above satellite

Ground track
Ground track

The orbit data is extracted from the following two-line orbital elements,

1 16262U 85108A   15243.85911864 +.00001322 +00000-0 +82356-4 0  9992
2 16262 082.4866 172.7867 0010269 005.2588 354.8746 15.08719076619767
Epoch (UTC): 31 August 2015 20:37:07
Eccentricity: 0.0010269
inclination: 82.4866°
perigee height: 533 km
apogee height: 547 km
right ascension of ascending node: 172.7867°
argument of perigee: 5.2588°
revolutions per day: 15.08719076
mean anomaly at epoch: 354.8746°
orbit number at epoch: 61976

The dashed part of the orbit path shows where the satellite is in the earth's shadow,  

DLR